Las Cruces, NM

5:36 AM MDT on October 21, 2017 (GMT -0600)
Las Cruces International

Weather History for KLRU - March, 2013

Change the Weather History Date:

Saturday, March 30, 2013

  Actual Average Record
Temperature  
Mean Temperature 63 °F -  
Max Temperature 78 °F 68 °F 82 °F (2008)
Min Temperature 48 °F 42 °F 28 °F (2003)
Degree Days  
Heating Degree Days 2    
Growing Degree Days 13 (Base 50)    
Moisture  
Dew Point 15 °F    
Average Humidity 15    
Maximum Humidity 22    
Minimum Humidity 10    
Precipitation  
Precipitation 0.00 in - - ()
Sea Level Pressure  
Sea Level Pressure 30.10 in    
Wind  
Wind Speed 7 mph (WNW)    
Max Wind Speed 23 mph    
Max Gust Speed 36 mph    
Visibility 10 miles    
Events      
Averages and records for this station are not official NWS values.
T = Trace of Precipitation, MM = Missing Value Source: NWS Daily Summary

Daily Weather History Graph

Daily Weather History Graph

Search for Another Location

Airport or City:

Trip Planner

Search our weather history database for the weather conditions in past years. The results will help you decide how hot, cold, wet, or windy it might be!

Date:

Astronomy

Mar. 30, 2013 Rise Set
Actual Time 6:58 AM MDT 7:26 PM MDT
Civil Twilight 6:33 AM MDT 7:51 PM MDT
Nautical Twilight 6:04 AM MDT 8:19 PM MDT
Astronomical Twilight 5:35 AM MDT 8:49 PM MDT
Moon 11:21 PM MDT (3/30) 9:08 AM MDT (3/30)
Length of Visible Light 13h 17m
Length of Day
12h 28m
Waning Gibbous, 86% of the Moon is Illuminated
Mar 30
Waning Gibbous
Apr 2
Last Quarter
Apr 10
New
Apr 18
First Quarter
Apr 25
Full

Hourly Weather History & Observations

Time (MDT) Temp. Dew Point Humidity Pressure Visibility Wind Dir Wind Speed Gust Speed Precip Events Conditions
12:15 AM 59.4 °F 11.7 °F 15% 30.13 in 10.0 mi WNW 9.2 mph - N/A   Clear
12:35 AM 61.7 °F 13.1 °F 15% 30.13 in 10.0 mi NW 8.1 mph - N/A   Clear
12:55 AM 59.9 °F 12.6 °F 16% 30.12 in 10.0 mi NW 9.2 mph - N/A   Clear
1:15 AM 59.4 °F 12.2 °F 16% 30.12 in 10.0 mi NW 9.2 mph - N/A   Clear
1:35 AM 57.6 °F 11.3 °F 16% 30.12 in 10.0 mi NW 9.2 mph - N/A   Clear
1:55 AM 58.5 °F 12.0 °F 16% 30.12 in 10.0 mi NNW 9.2 mph - N/A   Clear
2:15 AM 58.1 °F 12.0 °F 16% 30.12 in 10.0 mi NNE 8.1 mph - N/A   Clear
2:35 AM 60.8 °F 12.7 °F 15% 30.12 in 10.0 mi NE 4.6 mph - N/A   Clear
2:55 AM 57.6 °F 11.8 °F 16% 30.12 in 10.0 mi Calm Calm - N/A   Clear
3:15 AM 53.1 °F 10.9 °F 19% 30.13 in 10.0 mi WSW 4.6 mph - N/A   Clear
3:35 AM 52.3 °F 10.6 °F 19% 30.12 in 10.0 mi NW 5.8 mph - N/A   Clear
3:55 AM 51.1 °F 10.8 °F 20% 30.12 in 10.0 mi NNW 8.1 mph - N/A   Clear
4:15 AM 51.6 °F 10.8 °F 19% 30.12 in 10.0 mi WSW 6.9 mph - N/A   Clear
4:35 AM 53.1 °F 10.8 °F 18% 30.12 in 10.0 mi West 6.9 mph - N/A   Clear
4:55 AM 50.4 °F 10.4 °F 20% 30.12 in 10.0 mi WNW 3.5 mph - N/A   Clear
5:15 AM 50.7 °F 10.6 °F 20% 30.12 in 10.0 mi WNW 5.8 mph - N/A   Clear
5:35 AM 48.7 °F 10.4 °F 21% 30.12 in 10.0 mi West 4.6 mph - N/A   Clear
5:55 AM 49.1 °F 10.4 °F 21% 30.13 in 10.0 mi WNW 5.8 mph - N/A   Clear
6:15 AM 50.5 °F 10.8 °F 20% 30.14 in 10.0 mi WSW 5.8 mph - N/A   Clear
6:35 AM 52.3 °F 12.0 °F 20% 30.14 in 10.0 mi West 8.1 mph - N/A   Clear
6:55 AM 50.4 °F 11.8 °F 21% 30.14 in 10.0 mi West 8.1 mph - N/A   Clear
7:15 AM 49.5 °F 11.8 °F 22% 30.15 in 10.0 mi Calm Calm - N/A   Clear
7:35 AM 50.0 °F 12.0 °F 22% 30.16 in 10.0 mi West 5.8 mph - N/A   Clear
7:55 AM 52.2 °F 12.9 °F 21% 30.16 in 10.0 mi West 3.5 mph - N/A   Clear
8:15 AM 53.8 °F 12.7 °F 20% 30.16 in 10.0 mi Calm Calm - N/A   Clear
8:35 AM 55.8 °F 12.6 °F 18% 30.16 in 10.0 mi NNW 4.6 mph - N/A   Clear
8:55 AM 59.2 °F 12.6 °F 16% 30.17 in 10.0 mi Calm Calm - N/A   Clear
9:15 AM 60.3 °F 12.9 °F 16% 30.17 in 10.0 mi Calm Calm - N/A   Clear
9:35 AM 63.1 °F 13.5 °F 14% 30.17 in 10.0 mi Calm Calm - N/A   Clear
9:55 AM 65.5 °F 14.0 °F 14% 30.16 in 10.0 mi Calm Calm - N/A   Clear
10:15 AM 67.5 °F 13.8 °F 13% 30.16 in 10.0 mi Calm Calm - N/A   Clear
10:35 AM 69.8 °F 14.0 °F 12% 30.17 in 10.0 mi Calm Calm - N/A   Clear
10:55 AM 71.1 °F 15.1 °F 12% 30.16 in 10.0 mi Calm Calm - N/A   Clear
11:15 AM 72.0 °F 14.0 °F 11% 30.16 in 10.0 mi Calm Calm - N/A   Clear
11:35 AM 72.9 °F 14.5 °F 11% 30.16 in 10.0 mi WNW 3.5 mph - N/A   Clear
11:55 AM 73.8 °F 14.4 °F 10% 30.15 in 10.0 mi Calm Calm - N/A   Clear
12:15 PM 75.0 °F 14.9 °F 10% 30.15 in 10.0 mi WSW 3.5 mph - N/A   Clear
12:35 PM 76.3 °F 15.4 °F 10% 30.14 in 10.0 mi SW 8.1 mph - N/A   Clear
12:55 PM 76.6 °F 15.3 °F 10% 30.13 in 10.0 mi SSW 4.6 mph - N/A   Clear
1:15 PM 78.1 °F 15.8 °F 10% 30.12 in 10.0 mi WSW 11.5 mph - N/A   Clear
1:35 PM 77.5 °F 17.1 °F 10% 30.11 in 10.0 mi WSW 18.4 mph - N/A   Clear
1:55 PM 77.2 °F 18.0 °F 11% 30.10 in 10.0 mi West 12.7 mph 18.4 mph N/A   Clear
2:15 PM 77.0 °F 18.0 °F 11% 30.09 in 10.0 mi WSW 13.8 mph 20.7 mph N/A   Clear
2:35 PM 77.2 °F 17.4 °F 11% 30.08 in 10.0 mi West 6.9 mph 23.0 mph N/A   Clear
2:55 PM 77.4 °F 16.5 °F 10% 30.08 in 10.0 mi WSW 15.0 mph 23.0 mph N/A   Clear
3:15 PM 76.6 °F 18.0 °F 11% 30.07 in 10.0 mi WSW 9.2 mph 21.9 mph N/A   Scattered Clouds
3:35 PM 77.2 °F 16.7 °F 10% 30.06 in 10.0 mi West 12.7 mph 18.4 mph N/A   Scattered Clouds
3:55 PM 77.2 °F 17.6 °F 11% 30.05 in 10.0 mi WSW 11.5 mph - N/A   Clear
4:15 PM 78.1 °F 18.5 °F 11% 30.04 in 10.0 mi West 9.2 mph 19.6 mph N/A   Clear
4:35 PM 77.4 °F 18.5 °F 11% 30.03 in 10.0 mi West 5.8 mph 18.4 mph N/A   Clear
4:55 PM 77.0 °F 18.5 °F 11% 30.03 in 10.0 mi West 10.4 mph - N/A   Clear
5:15 PM 77.2 °F 18.5 °F 11% 30.03 in 10.0 mi West 16.1 mph 21.9 mph N/A   Clear
5:35 PM 76.6 °F 17.1 °F 11% 30.03 in 10.0 mi West 23.0 mph 35.7 mph N/A   Clear
5:55 PM 75.7 °F 18.3 °F 12% 30.02 in 10.0 mi WNW 16.1 mph 23.0 mph N/A   Scattered Clouds
6:15 PM 75.6 °F 18.9 °F 12% 30.03 in 10.0 mi West 16.1 mph 20.7 mph N/A   Clear
6:35 PM 75.2 °F 18.5 °F 12% 30.03 in 10.0 mi West 13.8 mph 19.6 mph N/A   Scattered Clouds
6:55 PM 74.3 °F 18.9 °F 12% 30.03 in 10.0 mi WNW 11.5 mph 19.6 mph N/A   Scattered Clouds
7:15 PM 73.8 °F 18.7 °F 13% 30.03 in 10.0 mi WNW 12.7 mph 23.0 mph N/A   Scattered Clouds
7:35 PM 73.0 °F 18.9 °F 13% 30.04 in 10.0 mi West 12.7 mph - N/A   Clear
7:55 PM 72.1 °F 21.0 °F 15% 30.04 in 10.0 mi WSW 19.6 mph 26.5 mph N/A   Clear
8:15 PM 72.0 °F 17.8 °F 13% 30.04 in 10.0 mi WNW 12.7 mph - N/A   Scattered Clouds
8:35 PM 70.7 °F 17.6 °F 13% 30.05 in 10.0 mi WNW 9.2 mph - N/A   Clear
8:55 PM 69.8 °F 18.9 °F 14% 30.05 in 10.0 mi WNW 8.1 mph - N/A   Clear
9:15 PM 68.9 °F 18.3 °F 15% 30.05 in 10.0 mi NW 6.9 mph - N/A   Clear
9:35 PM 67.5 °F 17.4 °F 15% 30.05 in 10.0 mi NNW 6.9 mph - N/A   Clear
9:55 PM 64.9 °F 16.0 °F 15% 30.05 in 10.0 mi NNW 6.9 mph - N/A   Clear
10:15 PM 62.8 °F 14.9 °F 16% 30.05 in 10.0 mi NNW 8.1 mph - N/A   Clear
10:35 PM 61.0 °F 13.8 °F 16% 30.05 in 10.0 mi NNW 8.1 mph - N/A   Clear
10:55 PM 60.4 °F 13.1 °F 16% 30.05 in 10.0 mi NW 8.1 mph - N/A   Clear
11:15 PM 62.8 °F 14.0 °F 15% 30.06 in 10.0 mi NW 9.2 mph - N/A   Clear
11:35 PM 63.0 °F 14.0 °F 15% 30.06 in 10.0 mi NW 9.2 mph - N/A   Clear
11:55 PM 63.5 °F 14.9 °F 15% 30.06 in 10.0 mi WNW 6.9 mph - N/A   Clear